Location: Wavehorne
(51.0500°N, 0.8333°E)
Time: 20:07:17
(UTC+00:00)

NOSS 2-2 (C) - Pass Details

Date: 29 October 2021
Orbit: 450 x 1756 km, 63.3° (Epoch: 26 November)

Event Time Altitude Azimuth Distance (km) Brightness Sun altitude
Rises 17:37:04 0° 178° (S) 2,479 6.8 -10.1°
Reaches altitude 10° 17:39:46 10° 155° (SSE) 1,579 5.5 -10.5°
Maximum altitude 17:41:51 16° 116° (ESE) 1,294 4.7 -10.8°
Enters shadow 17:42:29 15° 103° (ESE) 1,332 4.7 -10.9°
